Tracking 29781 objects as of 15-Oct-2024
HD Live streaming from Space Station
objects crossing your sky now

DELTA 1 R/B

Track DELTA 1 R/B now!
10-day predictions


NORAD ID: 4354
Int'l Code: 1970-021B
Perigee: 297.0 km
Apogee: 23,486.4 km
Inclination: 25.4 °
Period: 409.4 minutes
Semi major axis: 18262 km
RCS: 1.8826 m2 (large)
Launch date: March 20, 1970
Source: United States (US)
Launch site: AIR FORCE EASTERN TEST RANGE (AFETR)

Note: This is a ROCKET BODY
Your satellite tracking list
Your tracking list is empty




NASA's NSSDC Master Catalog

Two Line Element Set (TLE):
1  4354U 70021B   24288.00682620  .00008911  00000-0  26108-2 0  9992
2  4354  25.3968 346.9985 6348845 171.1707 210.1548  3.51766963356806
Source of the keplerian elements: AFSPC